Location: Abundant Grace Fellowship
(35.0349°N, 90.0924°W)
Time: 09:13:58
(UTC+00:00)

Resurs 1-3 - Pass Details

Date: 18 January 2026
Orbit: 613 x 615 km, 97.7° (Epoch: 10 February)

Event Time Altitude Azimuth Distance (km) Brightness Sun altitude
Rises 00:27:08 0° 164° (SSE) 2,869 7.0 -14.9°
Reaches altitude 10° 00:29:19 10° 164° (SSE) 1,968 6.1 -15.3°
Maximum altitude 00:33:35 81° 77° (ENE) 627 3.4 -16.2°
Drops below altitude 10° 00:37:54 10° 350° (N) 1,980 6.1 -17.0°
Sets 00:40:05 0° 350° (N) 2,889 7.0 -17.5°
